�������l�o���
Date,Time,MP-1(��Sv/h),MP-2(��Sv/h),MP-3(��Sv/h),MP-4(��Sv/h),MP-5(��Sv/h),MP-6(��Sv/h),MP-7(��Sv/h),MP-8(��Sv/h),����,����(m/s),���J
2020/06/22,00:00,0.697,0.997,0.641,1.214,0.878,0.398,0.690,0.646,��쐼,0.9,��
2020/06/22,00:10,0.696,0.998,0.642,1.215,0.877,0.398,0.690,0.644,��,1.1,��
2020/06/22,00:20,0.696,0.997,0.643,1.216,0.877,0.396,0.690,0.645,��,0.6,��
2020/06/22,00:30,0.697,0.997,0.643,1.214,0.877,0.398,0.689,0.645,-,CALM,��
2020/06/22,00:40,0.694,0.997,0.642,1.215,0.877,0.399,0.690,0.644,��쓌,0.6,��
2020/06/22,00:50,0.697,0.995,0.644,1.215,0.877,0.399,0.690,0.644,�k�k��,0.6,��
2020/06/22,01:00,0.696,0.995,0.640,1.215,0.876,0.398,0.691,0.646,�k�k��,1.2,��
2020/06/22,01:10,0.696,0.996,0.641,1.219,0.880,0.399,0.691,0.643,�k��,0.9,��
2020/06/22,01:20,0.698,0.998,0.642,1.215,0.880,0.398,0.692,0.645,���k��,0.9,��
2020/06/22,01:30,0.696,0.998,0.642,1.216,0.878,0.398,0.692,0.646,�k,0.6,��
2020/06/22,01:40,0.695,0.995,0.642,1.215,0.878,0.398,0.691,0.644,-,CALM,��
2020/06/22,01:50,0.697,0.998,0.642,1.215,0.879,0.398,0.691,0.646,��,0.6,��
2020/06/22,02:00,0.697,0.994,0.642,1.218,0.878,0.398,0.689,0.646,-,CALM,��
2020/06/22,02:10,0.696,0.995,0.643,1.216,0.878,0.398,0.690,0.646,��,0.6,��
2020/06/22,02:20,0.697,0.996,0.643,1.214,0.877,0.399,0.690,0.646,-,CALM,��
2020/06/22,02:30,0.698,0.996,0.643,1.216,0.875,0.398,0.690,0.645,-,CALM,��
2020/06/22,02:40,0.696,0.996,0.642,1.216,0.878,0.398,0.690,0.645,��쓌,0.6,��
2020/06/22,02:50,0.697,0.996,0.641,1.215,0.876,0.397,0.691,0.645,�k��,0.9,��
2020/06/22,03:00,0.697,0.994,0.641,1.217,0.878,0.397,0.691,0.645,�k�k��,1.2,��
2020/06/22,03:10,0.697,0.997,0.642,1.216,0.879,0.399,0.691,0.645,�k�k��,1.7,��
2020/06/22,03:20,0.697,0.996,0.643,1.214,0.879,0.400,0.694,0.648,�k�k��,2.3,��
2020/06/22,03:30,0.697,0.995,0.643,1.214,0.877,0.396,0.691,0.645,�k�k��,1.1,��
2020/06/22,03:40,0.699,0.996,0.640,1.215,0.877,0.398,0.692,0.646,�k��,0.9,��
2020/06/22,03:50,0.698,0.995,0.642,1.213,0.878,0.399,0.691,0.645,�k,1.7,��
2020/06/22,04:00,0.698,0.997,0.642,1.217,0.879,0.400,0.691,0.645,�k,2.3,��
2020/06/22,04:10,0.697,0.997,0.642,1.216,0.879,0.399,0.691,0.644,�k,1.9,��
2020/06/22,04:20,0.698,0.997,0.643,1.217,0.879,0.397,0.691,0.645,�k�k��,1.7,��
2020/06/22,04:30,0.700,0.996,0.644,1.215,0.879,0.398,0.690,0.644,�k�k��,1.7,��
2020/06/22,04:40,0.698,0.995,0.644,1.218,0.880,0.400,0.690,0.648,�k�k��,1.2,�L
2020/06/22,04:50,0.699,0.996,0.644,1.215,0.878,0.398,0.693,0.646,�k��,1.5,��
2020/06/22,05:00,0.698,0.996,0.642,1.217,0.878,0.398,0.692,0.646,�k��,2.3,��
2020/06/22,05:10,0.698,0.995,0.644,1.216,0.878,0.397,0.692,0.645,�k��,2.3,��
2020/06/22,05:20,0.698,0.996,0.642,1.216,0.880,0.397,0.691,0.646,�k,1.5,��
2020/06/22,05:30,0.699,0.996,0.644,1.219,0.879,0.398,0.691,0.645,�k��,1.4,��
2020/06/22,05:40,0.697,0.997,0.641,1.217,0.880,0.399,0.692,0.646,���k��,1.1,��
2020/06/22,05:50,0.696,0.996,0.641,1.216,0.879,0.396,0.692,0.645,���k��,0.9,��
2020/06/22,06:00,0.697,0.995,0.642,1.217,0.878,0.397,0.690,0.645,�k�k��,0.9,��
2020/06/22,06:10,0.698,0.996,0.642,1.216,0.877,0.399,0.690,0.645,�k�k��,1.1,��
2020/06/22,06:20,0.698,0.997,0.644,1.215,0.876,0.396,0.692,0.644,�k�k��,1.7,��
2020/06/22,06:30,0.697,0.995,0.643,1.216,0.879,0.397,0.690,0.644,�k�k��,0.9,��
2020/06/22,06:40,0.698,0.995,0.642,1.216,0.877,0.398,0.691,0.642,�k�k��,1.2,��
2020/06/22,06:50,0.696,0.995,0.642,1.214,0.877,0.398,0.692,0.646,�k�k��,0.9,��
2020/06/22,07:00,0.697,0.996,0.641,1.216,0.877,0.397,0.690,0.645,�k��,0.6,��
2020/06/22,07:10,0.694,0.995,0.644,1.216,0.878,0.398,0.689,0.645,�k��,1.1,��
2020/06/22,07:20,0.697,0.995,0.642,1.217,0.878,0.397,0.690,0.645,���쐼,0.9,��
2020/06/22,07:30,0.698,0.994,0.642,1.216,0.879,0.398,0.689,0.646,���쐼,0.9,��
2020/06/22,07:40,0.699,0.995,0.643,1.215,0.877,0.396,0.690,0.645,���쐼,0.6,��
2020/06/22,07:50,0.699,0.996,0.644,1.217,0.876,0.395,0.692,0.646,-,CALM,��
2020/06/22,08:00,0.697,0.996,0.644,1.215,0.877,0.394,0.691,0.646,-,CALM,��
2020/06/22,08:10,0.698,0.995,0.642,1.216,0.878,0.394,0.691,0.644,��,0.9,��
2020/06/22,08:20,0.697,0.995,0.643,1.217,0.878,0.393,0.688,0.645,��,0.6,��
2020/06/22,08:30,0.699,0.992,0.643,1.216,0.878,0.395,0.690,0.645,�k�k��,0.6,��
2020/06/22,08:40,0.697,0.992,0.642,1.216,0.878,0.395,0.691,0.644,�k�k��,0.6,��
2020/06/22,08:50,0.699,0.989,0.643,1.216,0.879,0.394,0.691,0.644,-,CALM,��
2020/06/22,09:00,0.698,0.992,0.643,1.217,0.878,0.394,0.691,0.643,��,0.6,��
2020/06/22,09:10,0.699,0.989,0.641,1.214,0.876,0.395,0.692,0.644,�k�k��,1.5,��
2020/06/22,09:20,0.696,0.988,0.644,1.215,0.879,0.392,0.690,0.643,�k,2.6,��
2020/06/22,09:30,0.694,0.989,0.641,1.217,0.877,0.395,0.690,0.644,�k�k��,2.6,��
2020/06/22,09:40,0.694,0.987,0.643,1.215,0.878,0.396,0.688,0.644,�k�k��,2.6,��
2020/06/22,09:50,0.695,0.986,0.641,1.216,0.875,0.395,0.689,0.645,�k�k��,2.2,��
2020/06/22,10:00,0.695,0.987,0.641,1.215,0.876,0.396,0.688,0.644,�k�k��,2.3,�L
2020/06/22,10:10,0.694,0.984,0.640,1.214,0.876,0.396,0.689,0.645,�k,3.6,��
2020/06/22,10:20,0.693,0.987,0.642,1.215,0.876,0.395,0.689,0.645,�k,3.3,��
2020/06/22,10:30,0.695,0.987,0.639,1.216,0.874,0.395,0.690,0.644,�k,3.4,��
2020/06/22,10:40,0.693,0.986,0.639,1.217,0.876,0.395,0.689,0.643,�k,3.7,��
2020/06/22,10:50,0.693,0.984,0.639,1.217,0.875,0.394,0.689,0.643,�k�k��,4.1,��
2020/06/22,11:00,0.694,0.983,0.641,1.215,0.874,0.395,0.688,0.643,�k�k��,4.1,��
2020/06/22,11:10,0.693,0.985,0.640,1.214,0.875,0.394,0.690,0.644,�k,5.2,��
2020/06/22,11:20,0.694,0.984,0.639,1.215,0.875,0.393,0.689,0.643,�k,5.2,��
2020/06/22,11:30,0.692,0.984,0.639,1.216,0.876,0.394,0.690,0.644,�k,5.8,��
2020/06/22,11:40,0.692,0.987,0.638,1.216,0.873,0.394,0.690,0.644,�k,5.5,��
2020/06/22,11:50,0.695,0.991,0.638,1.216,0.875,0.391,0.690,0.642,�k,5.1,�L
2020/06/22,12:00,0.692,0.989,0.638,1.215,0.875,0.393,0.689,0.644,�k,4.4,�L
2020/06/22,12:10,0.694,0.988,0.638,1.215,0.875,0.395,0.690,0.641,�k,4.7,�L
2020/06/22,12:20,0.694,0.989,0.638,1.216,0.873,0.395,0.689,0.643,�k,5.4,�L
2020/06/22,12:30,0.693,0.988,0.636,1.214,0.874,0.395,0.690,0.643,�k�k��,5.2,��
2020/06/22,12:40,0.694,0.991,0.637,1.218,0.874,0.395,0.690,0.642,�k,6.6,��
2020/06/22,12:50,0.694,0.990,0.640,1.214,0.873,0.395,0.691,0.642,�k,6.3,��
2020/06/22,13:00,0.691,0.988,0.640,1.217,0.876,0.394,0.689,0.644,�k,6.1,��
2020/06/22,13:10,0.693,0.989,0.638,1.216,0.876,0.395,0.689,0.644,�k,6.8,�L
2020/06/22,13:20,0.692,0.990,0.637,1.218,0.876,0.395,0.689,0.643,�k�k��,5.7,��
2020/06/22,13:30,0.694,0.988,0.640,1.218,0.875,0.394,0.691,0.643,�k�k��,6.5,�L
2020/06/22,13:40,0.694,0.988,0.639,1.217,0.875,0.393,0.689,0.644,�k�k��,6.0,�L
2020/06/22,13:50,0.694,0.987,0.638,1.216,0.874,0.395,0.693,0.644,�k�k��,7.0,�L
2020/06/22,14:00,0.693,0.981,0.637,1.217,0.873,0.395,0.690,0.643,�k�k��,4.9,�L
2020/06/22,14:10,0.693,0.984,0.637,1.215,0.870,0.393,0.689,0.643,�k�k��,6.9,�L
2020/06/22,14:20,0.691,0.983,0.638,1.215,0.874,0.392,0.688,0.643,�k�k��,5.7,�L
2020/06/22,14:30,0.691,0.982,0.636,1.214,0.871,0.393,0.688,0.642,�k�k��,5.7,�L
2020/06/22,14:40,0.691,0.979,0.636,1.214,0.869,0.393,0.687,0.641,�k�k��,5.1,�L
2020/06/22,14:50,0.691,0.981,0.639,1.214,0.869,0.395,0.687,0.640,�k�k��,5.5,�L
2020/06/22,15:00,0.690,0.979,0.637,1.214,0.870,0.394,0.688,0.642,�k�k��,6.5,�L
2020/06/22,15:10,0.690,0.982,0.638,1.212,0.870,0.394,0.686,0.641,�k�k��,6.4,�L
2020/06/22,15:20,0.689,0.982,0.636,1.211,0.867,0.394,0.688,0.642,�k,7.6,�L
2020/06/22,15:30,0.692,0.982,0.636,1.210,0.867,0.395,0.686,0.641,�k,8.0,�L
2020/06/22,15:40,0.691,0.982,0.635,1.211,0.871,0.394,0.688,0.642,�k�k��,6.3,�L
2020/06/22,15:50,0.692,0.983,0.635,1.212,0.868,0.394,0.687,0.641,�k�k��,8.0,�L
2020/06/22,16:00,0.691,0.984,0.637,1.213,0.869,0.393,0.687,0.643,�k�k��,9.1,�L
2020/06/22,16:10,0.689,0.982,0.633,1.210,0.869,0.396,0.690,0.640,�k,8.9,�L
2020/06/22,16:20,0.689,0.985,0.635,1.213,0.867,0.395,0.689,0.640,�k,8.1,�L
2020/06/22,16:30,0.689,0.987,0.636,1.211,0.869,0.393,0.687,0.641,�k�k��,7.6,��
2020/06/22,16:40,0.690,0.983,0.637,1.212,0.869,0.393,0.688,0.641,�k�k��,8.4,��
2020/06/22,16:50,0.690,0.984,0.634,1.212,0.868,0.392,0.686,0.643,�k�k��,8.6,��
2020/06/22,17:00,0.688,0.983,0.635,1.212,0.870,0.394,0.688,0.641,�k�k��,9.1,�L
2020/06/22,17:10,0.690,0.983,0.636,1.213,0.868,0.393,0.687,0.642,�k�k��,8.9,�L
2020/06/22,17:20,0.692,0.987,0.633,1.211,0.869,0.392,0.688,0.642,�k�k��,8.3,��
2020/06/22,17:30,0.688,0.986,0.635,1.211,0.870,0.393,0.687,0.642,�k�k��,8.5,�L
2020/06/22,17:40,0.689,0.985,0.635,1.212,0.866,0.393,0.689,0.641,�k�k��,8.8,�L
2020/06/22,17:50,0.691,0.984,0.634,1.212,0.865,0.393,0.687,0.643,�k�k��,9.1,�L
2020/06/22,18:00,0.688,0.984,0.635,1.213,0.866,0.391,0.688,0.642,�k�k��,10.2,�L
2020/06/22,18:10,0.688,0.983,0.636,1.212,0.866,0.394,0.687,0.641,�k�k��,9.4,�L
2020/06/22,18:20,0.687,0.981,0.636,1.212,0.866,0.393,0.685,0.642,�k�k��,9.9,�L
2020/06/22,18:30,0.688,0.983,0.635,1.212,0.865,0.395,0.686,0.642,�k�k��,9.8,�L
2020/06/22,18:40,0.688,0.983,0.633,1.213,0.866,0.395,0.684,0.640,�k�k��,8.9,�L
2020/06/22,18:50,0.688,0.983,0.635,1.209,0.864,0.393,0.684,0.641,�k�k��,9.6,�L
2020/06/22,19:00,0.688,0.980,0.633,1.209,0.864,0.394,0.686,0.640,�k�k��,10.3,�L
2020/06/22,19:10,0.687,0.981,0.633,1.212,0.863,0.393,0.685,0.640,�k�k��,9.6,�L
2020/06/22,19:20,0.690,0.983,0.633,1.212,0.864,0.392,0.686,0.640,�k�k��,8.4,�L
2020/06/22,19:30,0.689,0.982,0.633,1.210,0.864,0.394,0.686,0.639,�k,7.7,�L
2020/06/22,19:40,0.686,0.977,0.632,1.209,0.861,0.392,0.682,0.640,�k,7.3,�L
2020/06/22,19:50,0.682,0.969,0.631,1.202,0.854,0.393,0.683,0.637,�k�k��,8.3,�L
2020/06/22,20:00,0.681,0.962,0.626,1.195,0.850,0.390,0.680,0.636,�k,7.9,�L
2020/06/22,20:10,0.677,0.956,0.622,1.184,0.845,0.390,0.678,0.635,�k,8.3,�L
2020/06/22,20:20,0.673,0.952,0.624,1.176,0.842,0.389,0.677,0.634,�k,8.2,�L
2020/06/22,20:30,0.670,0.944,0.621,1.166,0.836,0.387,0.674,0.631,�k,8.8,�L
2020/06/22,20:40,0.669,0.941,0.619,1.160,0.835,0.386,0.673,0.631,�k,8.3,�L
2020/06/22,20:50,0.671,0.942,0.620,1.162,0.834,0.386,0.672,0.632,�k,9.1,�L
2020/06/22,21:00,0.671,0.943,0.621,1.160,0.836,0.387,0.673,0.630,�k,8.5,�L
2020/06/22,21:10,0.668,0.942,0.620,1.157,0.833,0.386,0.672,0.631,�k,9.9,�L
2020/06/22,21:20,0.667,0.942,0.620,1.159,0.832,0.386,0.672,0.629,�k,10.6,�L
2020/06/22,21:30,0.668,0.939,0.618,1.160,0.832,0.387,0.672,0.629,�k,9.2,�L
2020/06/22,21:40,0.669,0.942,0.618,1.157,0.831,0.387,0.672,0.630,�k,10.9,�L
2020/06/22,21:50,0.667,0.940,0.619,1.156,0.827,0.385,0.670,0.629,�k,9.6,�L
2020/06/22,22:00,0.665,0.935,0.617,1.153,0.827,0.384,0.668,0.631,�k�k��,10.8,�L
2020/06/22,22:10,0.662,0.932,0.616,1.151,0.822,0.384,0.669,0.628,�k,11.6,�L
2020/06/22,22:20,0.662,0.932,0.613,1.147,0.821,0.384,0.668,0.625,�k�k��,10.2,�L
2020/06/22,22:30,0.663,0.931,0.614,1.147,0.821,0.384,0.666,0.626,�k�k��,11.3,�L
2020/06/22,22:40,0.660,0.931,0.613,1.143,0.820,0.382,0.665,0.625,�k�k��,10.9,�L
2020/06/22,22:50,0.661,0.928,0.613,1.145,0.821,0.384,0.667,0.625,�k�k��,10.2,�L
2020/06/22,23:00,0.663,0.927,0.614,1.146,0.822,0.385,0.666,0.624,�k�k��,12.2,�L
2020/06/22,23:10,0.665,0.931,0.615,1.150,0.822,0.384,0.667,0.627,�k�k��,10.5,�L
2020/06/22,23:20,0.664,0.931,0.613,1.150,0.821,0.383,0.667,0.626,�k�k��,9.7,�L
2020/06/22,23:30,0.663,0.932,0.614,1.151,0.822,0.386,0.667,0.624,�k�k��,9.2,�L
2020/06/22,23:40,0.664,0.934,0.615,1.150,0.822,0.385,0.667,0.627,�k�k��,10.5,�L
2020/06/22,23:50,0.666,0.932,0.613,1.153,0.821,0.384,0.666,0.628,�k�k��,10.9,�L
